Location: Springfield
(37.2150°N, 93.2980°W)
Time: 19:17:08
(UTC-05:00)

Daily predictions for brighter satellites

Satellite Brightness Start Highest point End
(mag) Time Altitude Azimuth Time Altitude Azimuth Time Altitude Azimuth
Cosmos 1898 Rocket 3.8 19:43:28 10° S 19:48:34 49° ESE 19:53:40 10° NNE
Cosmos 2084 Rocket 3.6 19:44:59 10° SW 19:49:08 73° NW 19:53:04 10° NNE
Aureole 1 Rocket 3.6 19:51:02 10° NNW 19:55:16 55° WSW 19:58:37 10° S
COSMOS 2406 3.5 19:50:04 10° N 19:55:38 48° ENE 20:01:07 10° SE
Cosmos 2098 4.3 19:58:27 10° S 20:02:06 66° E 20:05:10 10° NNE
Helios 1A 4.5 20:04:27 10° ESE 20:07:17 18° ENE 20:10:09 10° NNE
Resurs 1-3 4.3 20:03:43 10° SE 20:07:39 33° ENE 20:11:34 10° N
ATLAS CENTAUR R/B 4.3 20:07:00 10° W 20:08:31 12° WSW 20:10:02 10° SW
Cosmos 1844 3.8 20:04:40 10° S 20:10:17 60° ESE 20:15:59 10° NNE
NOSS 3-4 (A) 4.2 20:03:53 10° NW 20:10:58 71° WSW 20:18:29 10° SSE
NOSS 3-4 (C) 4.2 20:03:59 10° NW 20:11:04 72° WSW 20:18:36 10° SSE
HJ-1C 3.4 20:07:59 10° SSE 20:11:18 59° ENE 20:14:40 10° N
Helios 1B rocket 3.6 20:08:21 10° NE 20:11:30 21° E 20:14:37 10° SE
Geosat 4.1 20:06:40 10° NE 20:11:34 53° ESE 20:16:27 10° S
CZ-3B DEB 3.3 19:59:21 10° SW 20:13:00 83° SE 20:19:00 10° NE
Cosmos 858 Rocket 4.5 20:09:01 10° S 20:14:15 75° ESE 20:19:33 10° NNE
Lacrosse 4 Rocket 1.3 20:15:32 10° SSW 20:19:35 87° WNW 20:23:39 10° NNE
Cosmos 2344 3.6 20:12:43 10° SSW 20:20:20 69° ESE 20:28:32 10° NE
CZ-2D R/B 3.8 20:17:24 10° SE 20:20:57 37° ENE 20:24:33 10° N
SL-27 R/B 3.7 20:19:52 10° N 20:22:50 24° ENE 20:24:08 20° E
Cosmos 1937 Rocket 3.4 20:17:52 10° S 20:23:04 74° ESE 20:28:20 10° NNE
Yuri Rocket 4.4 20:20:04 10° SW 20:23:27 24° S 20:25:53 15° SE
Tiangong 1 2.3 20:21:38 10° NW 20:24:16 29° N 20:25:52 17° ENE
Meteor 1-29 4.3 20:22:33 10° NE 20:25:09 20° E 20:25:09 20° E
Cosmos 2298 Rocket 4.1 20:20:30 10° SSW 20:25:48 84° WNW 20:31:09 10° NNE
SJ-6B 3.5 20:22:17 10° S 20:25:57 52° W 20:29:37 10° NNW
Cosmos 1805 4.3 20:24:26 10° SE 20:27:36 24° E 20:30:46 10° NE
Meteor 1-22 Rocket 4.3 20:21:57 10° S 20:27:36 66° E 20:33:30 10° NNE
Cosmos 1437 Rocket 2.9 20:24:37 10° S 20:28:35 82° W 20:32:38 10° N
USA 186 2.9 20:31:18 17° NE 20:31:18 17° NE 20:32:16 10° NNE
Cosmos 1934 Rocket 3.9 20:25:56 10° S 20:32:05 73° E 20:38:10 10° N
CZ-4B DEB 4.5 20:33:14 17° NE 20:33:14 17° NE 20:34:49 10° NNE
Okean 3 Rocket 4.2 20:31:42 10° NNE 20:35:39 33° ENE 20:37:36 23° ESE
ALOS 2.8 20:32:14 10° S 20:36:50 61° W 20:41:28 10° NNW
SeaSat 1 3.4 20:35:05 10° S 20:39:48 47° WSW 20:44:35 10° NW
Lacrosse 5 1.8 20:37:28 10° SSW 20:42:29 68° SE 20:47:32 10° NE
Cosmos 1758 3.9 20:43:44 31° ESE 20:44:22 33° E 20:47:58 10° NNE
Cosmos 1939 Rocket 4.0 20:50:45 27° ENE 20:50:45 27° ENE 20:54:00 10° NNE
Resurs 01 Rocket 2.1 20:49:22 10° S 20:53:42 60° W 20:58:05 10° NNW
GP-B 3.6 20:53:45 36° ESE 20:54:23 38° E 20:58:30 10° NNE
Cosmos 1953 2.6 20:55:19 42° E 20:55:26 42° E 20:59:18 10° NNE
Cosmos 1844 Rocket 4.1 20:51:43 10° SW 20:57:00 40° WNW 21:02:19 10° N
In-Cosmos 22 3.9 20:53:14 10° N 20:58:35 70° E 21:02:26 19° SSE
Cosmos 2278 Rocket 2.2 20:57:55 10° SSW 21:03:36 87° WNW 21:09:18 10° NNE
Spot 1 4.1 21:03:16 23° SSE 21:06:03 89° ENE 21:10:49 10° NNW
Cosmos 2100 Rocket 4.4 21:04:49 34° ESE 21:06:16 38° E 21:12:03 10° NNE
H-2A R/B 4.4 21:04:19 10° SSW 21:07:50 34° W 21:11:26 10° NNW
Cosmos 1605 Rocket 4.0 21:01:42 10° S 21:07:55 84° W 21:14:17 10° N
Cosmos 1833 Rocket 3.8 21:03:50 10° N 21:08:29 26° ENE 21:08:29 26° ENE
SAR-Lupe-4 3.8 21:10:12 38° S 21:11:22 65° WSW 21:14:56 10° NNW
H-2A R/B (2) 3.2 21:11:33 10° WSW 21:14:31 28° S 21:15:05 28° SSE
Cosmos 2297 3.8 21:09:16 10° S 21:14:44 51° ESE 21:20:17 10° NNE
Cosmos 1766 Rocket 4.4 21:13:54 10° N 21:17:05 37° NE 21:17:05 37° NE
Delta 2 Rocket 3.5 21:17:11 10° W 21:21:20 59° SSW 21:21:20 59° SSW
RESURS DK-1 2.4 21:18:05 10° NNW 21:22:12 73° WSW 21:22:33 68° SSW
OAO 1 4.4 21:16:55 10° W 21:22:23 72° S 21:23:14 60° SE
Cosmos 1076 Rocket 3.5 21:20:20 10° N 21:24:04 65° NNE 21:24:04 65° NNE
Cosmos 2061 Rocket 4.1 21:28:30 51° E 21:28:31 51° E 21:34:41 10° NNE
USA 215 3.6 21:22:14 10° NE 21:28:41 65° NW 21:35:07 10° WSW
Timation 1 Rocket 4.2 21:22:47 10° SSW 21:28:47 84° ESE 21:34:49 10° NNE
Envisat 2.9 21:31:44 54° S 21:32:54 82° WSW 21:38:01 10° NNW
Timation 2 Rocket 4.5 21:28:56 10° N 21:34:38 41° NE 21:34:38 41° NE
Cosmos 2082 Rocket 2.6 21:30:20 10° N 21:35:17 46° NE 21:35:17 46° NE
Cosmos 1125 Rocket 3.4 21:33:44 10° SSW 21:38:55 81° WNW 21:44:09 10° NNE
SJ-11-01 4.5 21:42:28 66° WSW 21:42:43 68° WSW 21:47:27 10° NNW
Cosmos 1048 Rocket 4.4 21:40:59 10° NNW 21:45:00 52° NNE 21:45:00 52° NNE
Meteor 1-21 Rocket 4.5 21:46:30 10° NNW 21:52:17 69° W 21:53:27 55° SSW
Cosmos 1818 3.9 21:52:10 10° NNW 21:56:37 59° NNW 21:56:37 59° NNW
BREEZE-M DEB (TANK) 3.5 21:54:08 10° WSW 21:57:53 80° NNW 22:11:38 10° ENE
USA 267 3.8 21:59:17 42° NE 21:59:30 42° NE 22:05:34 10° NNW
ERS-1 Rocket 3.7 22:03:35 49° NNW 22:03:35 49° NNW 22:07:17 10° NNW
Cosmos 1459 Rocket 4.2 22:08:25 63° SW 22:09:12 69° W 22:15:25 10° N
Cosmos 2173 Rocket 4.1 22:09:47 68° WSW 22:10:05 69° W 22:16:18 10° N
Lacrosse 5 4.0 22:21:53 10° W 22:25:52 23° NW 22:27:17 20° N
CZ-3B DEB 4.3 22:19:54 10° W 22:26:04 21° NW 22:28:42 15° N
Cosmos 1833 Rocket 4.4 22:47:16 10° NW 22:50:13 28° WNW 22:50:13 28° WNW
H-2A R/B 4.4 22:57:46 18° NNW 22:57:46 18° NNW 22:59:07 10° NNW
